Flag for Canada Weather past 2 weeks in Hopedale, Newfoundland and Labrador, Canada

Now
9 °F

Frigid.


Feels Like: -4 °F
Forecast: -4 / 9 °F
Wind: 9 mph from South

Location: Hopedale

Current Time: Dec 18, 2014 at 8:42:33 AM

Latest Report: Dec 18, 2014 at 8:00 AM


Visibility: N/A

Pressure: 30.03 "Hg

Humidity: 49%

Dew point: -6 °F

Location of HopedaleLocation

Historic Weather in Hopedale — Graph

°F

Hopedale temperature yesterday

Maximum temperature yesterday: 6 °F (at 12:00 AM)
Minimum temperature yesterday: 0 °F (at 8:00 AM)
Average temperature yesterday: 3 °F

Past Weeks' High & Low Weather Summary

 TemperatureHumidityPressure
High35 °F (Dec 14, 7:00 PM)100% (Dec 14, 2:00 AM)30.84 "Hg (Dec 14, 2:00 AM)
Low-5 °F (Dec 10, 9:00 AM)45% (Dec 15, 4:00 PM)29.10 "Hg (Dec 4, 10:00 AM)
Average11 °F71%30.09 "Hg
* Reported Dec 3 7:00 AM — Dec 18 7:00 AM, Hopedale, Weather by CustomWeather, © 2014

Note: Actual official high and low records may vary slightly from our data, if they occured in-between our weather recording intervals... More about our weather records

Advertising

Hopedale weather history for previous 24 hours

 ConditionsComfort  
Time TempWeatherWind HumidityBarometerVisibility
7:00 AM
Dec 18
9 °FFrigid.14 mph49%30.03 "HgN/A
6:00 AM8 °FFrigid.13 mph52%30.03 "HgN/A
5:00 AM7 °FFrigid.13 mph50%30.05 "HgN/A
4:00 AM7 °FFrigid.9 mph51%30.07 "HgN/A
3:00 AM6 °FFrigid.16 mph59%30.08 "HgN/A
2:00 AM5 °FFrigid.12 mph59%30.09 "HgN/A
1:00 AM6 °FFrigid.9 mph56%30.11 "HgN/A
12:00 AM4 °FFrigid.13 mph64%30.13 "HgN/A
11:00 PM
Dec 17
4 °FFrigid.10 mph61%30.14 "HgN/A
10:00 PM4 °FFrigid.10 mph55%30.14 "HgN/A
9:00 PM4 °FFrigid.12 mph62%30.16 "HgN/A
8:00 PM2 °FFrigid.8 mph68%30.18 "HgN/A
7:00 PM4 °FFrigid.8 mph62%30.20 "HgN/A
6:00 PM4 °FFrigid.8 mph64%30.20 "HgN/A
5:00 PM4 °FFrigid.8 mph64%30.21 "HgN/A
4:00 PM3 °FFrigid.6 mph60%30.22 "HgN/A
3:00 PM5 °FFrigid.10 mph55%30.22 "HgN/A
2:00 PM5 °FFrigid.9 mph55%30.23 "HgN/A
1:00 PM5 °FFrigid.8 mph52%30.25 "HgN/A
12:00 PM4 °FFrigid.7 mph54%30.26 "HgN/A
11:00 AM3 °FFrigid.9 mph54%30.28 "HgN/A
10:00 AM2 °FFrigid.10 mph53%30.30 "HgN/A
9:00 AM1 °FFrigid.8 mphN/A30.30 "HgN/A
8:00 AM0 °FFrigid.8 mph62%30.30 "HgN/A
Weather by CustomWeather, © 2014

See weather overviewHow to use our weather pages